QAF182 OOMS-LRCL

Flight info

Callsign QAF182
Flight time 5h 11m
Altitude 34000
Route MCT T508 SOLUD P574 NORGA/N0462F350 R401 GABKO/N0467F380 M317 ROTAL P574 SYZ P550 RASLA/N0467F400 P550 DASIS UL746 ODERO L621 REVDA DCT RIPGA DCT DOKUD DOKU1U
Aircraft A332/H-SDE3GHIJ2J3J5M1RVWXYZ/LB2D1

Departure

Time 2026-05-06 15:18
Airport Muscat International Airport (OOMS)

Arrival

Time 2026-05-06 20:30
Airport Avram Iancu Cluj International Airport (LRCL)
Time Latitude Longitude Altitude Speed Heading
2026-05-06 15:18 23.61214 58.33596 2214 ft 188 kts 84°
2026-05-06 15:18 23.61326 58.35053 2533 ft 196 kts 84°
2026-05-06 15:18 23.61447 58.36616 2606 ft 216 kts 84°
2026-05-06 15:19 23.61581 58.38333 2783 ft 236 kts 84°
2026-05-06 15:19 23.61828 58.40135 3026 ft 252 kts 70°
2026-05-06 15:19 23.62833 58.41758 3294 ft 267 kts 40°
2026-05-06 15:19 23.64507 58.42664 3810 ft 273 kts 12°
2026-05-06 15:20 23.66404 58.42642 4406 ft 275 kts 352°
2026-05-06 15:20 23.68255 58.42159 4898 ft 280 kts 336°
2026-05-06 15:20 23.69818 58.40856 5376 ft 286 kts 308°
2026-05-06 15:20 23.70797 58.38981 5965 ft 286 kts 297°
2026-05-06 15:21 23.71525 58.36952 6485 ft 289 kts 280°
2026-05-06 15:21 23.71646 58.34779 6965 ft 293 kts 269°
2026-05-06 15:21 23.71593 58.32541 7533 ft 294 kts 267°
2026-05-06 15:21 23.71492 58.30323 8169 ft 292 kts 266°
2026-05-06 15:22 23.71380 58.28133 8747 ft 292 kts 265°
2026-05-06 15:22 23.71262 58.25924 9285 ft 294 kts 265°
2026-05-06 15:22 23.71140 58.23685 9793 ft 296 kts 265°
2026-05-06 15:22 23.71017 58.21425 10282 ft 300 kts 266°
2026-05-06 15:23 23.70891 58.19088 10412 ft 317 kts 266°
2026-05-06 15:23 23.70757 58.16647 10554 ft 332 kts 266°
2026-05-06 15:23 23.70616 58.14035 10708 ft 346 kts 266°
2026-05-06 15:23 23.70471 58.11372 10858 ft 360 kts 266°
2026-05-06 15:24 23.70320 58.08621 10999 ft 372 kts 267°
2026-05-06 15:24 23.70164 58.05790 11318 ft 377 kts 267°
2026-05-06 15:24 23.70007 58.02915 11730 ft 380 kts 267°
2026-05-06 15:24 23.69844 57.99999 12127 ft 384 kts 267°
2026-05-06 15:25 23.69685 57.97117 12532 ft 387 kts 267°
2026-05-06 15:25 23.69620 57.94169 12911 ft 389 kts 276°
2026-05-06 15:25 23.70318 57.91308 13220 ft 392 kts 295°
2026-05-06 15:25 23.71805 57.88835 13594 ft 390 kts 313°
2026-05-06 15:26 23.73554 57.86565 14008 ft 393 kts 309°
2026-05-06 15:26 23.75275 57.84200 14415 ft 395 kts 309°
2026-05-06 15:26 23.76966 57.81856 14814 ft 397 kts 309°
2026-05-06 15:26 23.78685 57.79475 15159 ft 399 kts 310°
2026-05-06 15:27 23.80421 57.77070 15544 ft 401 kts 310°
2026-05-06 15:27 23.82148 57.74675 15883 ft 403 kts 310°
2026-05-06 15:27 23.83877 57.72276 16251 ft 405 kts 310°
2026-05-06 15:27 23.85649 57.69813 16589 ft 408 kts 310°
2026-05-06 15:28 23.87398 57.67383 16954 ft 410 kts 310°
2026-05-06 15:28 23.89168 57.64923 17320 ft 412 kts 310°
2026-05-06 15:28 23.90927 57.62476 17665 ft 413 kts 310°
2026-05-06 15:28 23.92713 57.59992 18044 ft 413 kts 310°
2026-05-06 15:29 23.94479 57.57532 18351 ft 415 kts 309°
2026-05-06 15:29 23.96254 57.55059 18638 ft 417 kts 309°
2026-05-06 15:29 23.98069 57.52528 18959 ft 418 kts 309°
2026-05-06 15:29 23.99860 57.50030 19310 ft 419 kts 309°
2026-05-06 15:30 24.01661 57.47517 19602 ft 421 kts 308°
2026-05-06 15:30 24.03488 57.44965 19865 ft 423 kts 308°
2026-05-06 15:30 24.05295 57.42439 20135 ft 424 kts 308°
2026-05-06 15:30 24.07123 57.39884 20428 ft 425 kts 308°
2026-05-06 15:31 24.08949 57.37331 20718 ft 426 kts 308°
2026-05-06 15:31 24.10771 57.34781 20947 ft 428 kts 307°
2026-05-06 15:31 24.12589 57.32235 21205 ft 429 kts 307°
2026-05-06 15:32 24.16282 57.27060 21778 ft 430 kts 307°
2026-05-06 15:32 24.18125 57.24475 21997 ft 431 kts 307°
2026-05-06 15:32 24.19964 57.21895 22215 ft 433 kts 307°
2026-05-06 15:32 24.21838 57.19264 22446 ft 434 kts 307°
2026-05-06 15:33 24.23673 57.16687 22685 ft 434 kts 307°
2026-05-06 15:33 24.25546 57.14055 22902 ft 435 kts 307°
2026-05-06 15:33 24.27406 57.11439 23094 ft 437 kts 307°
2026-05-06 15:33 24.29282 57.08800 23303 ft 438 kts 307°
2026-05-06 15:34 24.31152 57.06169 23540 ft 439 kts 306°
2026-05-06 15:34 24.33026 57.03529 23780 ft 439 kts 306°
2026-05-06 15:34 24.34914 57.00869 23979 ft 441 kts 306°
2026-05-06 15:34 24.36804 56.98203 24175 ft 442 kts 306°
2026-05-06 15:35 24.38711 56.95512 24415 ft 442 kts 306°
2026-05-06 15:35 24.40602 56.92845 24615 ft 443 kts 306°
2026-05-06 15:35 24.42502 56.90162 24843 ft 443 kts 306°
2026-05-06 15:35 24.44383 56.87504 25041 ft 444 kts 306°
2026-05-06 15:36 24.46273 56.84832 25263 ft 445 kts 306°
2026-05-06 15:36 24.48186 56.82126 25452 ft 446 kts 306°
2026-05-06 15:36 24.50089 56.79433 25665 ft 446 kts 306°
2026-05-06 15:36 24.51993 56.76736 25856 ft 447 kts 306°
2026-05-06 15:37 24.53900 56.74036 26030 ft 448 kts 306°
2026-05-06 15:37 24.55806 56.71341 26218 ft 449 kts 306°
2026-05-06 15:37 24.57725 56.68629 26401 ft 450 kts 306°
2026-05-06 15:37 24.59649 56.65906 26590 ft 451 kts 306°
2026-05-06 15:38 24.61579 56.63175 26796 ft 451 kts 306°
2026-05-06 15:38 24.63500 56.60453 26948 ft 452 kts 306°
2026-05-06 15:38 24.65411 56.57747 27122 ft 453 kts 306°
2026-05-06 15:38 24.67338 56.55014 27300 ft 454 kts 306°
2026-05-06 15:39 24.69290 56.52243 27453 ft 454 kts 306°
2026-05-06 15:39 24.71221 56.49501 27624 ft 455 kts 306°
2026-05-06 15:39 24.73158 56.46749 27760 ft 456 kts 306°
2026-05-06 15:39 24.75084 56.44009 27923 ft 456 kts 306°
2026-05-06 15:40 24.77040 56.41225 28078 ft 457 kts 306°
2026-05-06 15:40 24.78983 56.38460 28250 ft 457 kts 305°
2026-05-06 15:40 24.80898 56.35658 28367 ft 457 kts 304°
2026-05-06 15:40 24.82789 56.32858 28501 ft 458 kts 304°
2026-05-06 15:41 24.84675 56.30062 28663 ft 458 kts 304°
2026-05-06 15:41 24.86581 56.27236 28794 ft 458 kts 304°
2026-05-06 15:41 24.88363 56.24355 28912 ft 456 kts 297°
2026-05-06 15:41 24.89916 56.21316 29078 ft 456 kts 297°
2026-05-06 15:42 24.91555 56.18287 29219 ft 457 kts 303°
2026-05-06 15:42 24.93707 56.15688 29354 ft 461 kts 314°
2026-05-06 15:42 24.96314 56.13617 29467 ft 468 kts 329°
2026-05-06 15:42 24.99354 56.12333 29616 ft 473 kts 339°
2026-05-06 15:43 25.02523 56.11297 29779 ft 473 kts 340°
2026-05-06 15:43 25.05713 56.10312 29939 ft 473 kts 340°
2026-05-06 15:43 25.08884 56.09355 30085 ft 474 kts 340°
2026-05-06 15:43 25.12078 56.08396 30251 ft 473 kts 340°
2026-05-06 15:44 25.15240 56.07451 30436 ft 473 kts 340°
2026-05-06 15:44 25.18448 56.06491 30624 ft 472 kts 340°
2026-05-06 15:44 25.21600 56.05548 30792 ft 471 kts 340°
2026-05-06 15:44 25.24787 56.04594 30971 ft 471 kts 340°
2026-05-06 15:45 25.27923 56.03655 31137 ft 470 kts 340°
2026-05-06 15:45 25.31117 56.02697 31304 ft 470 kts 340°
2026-05-06 15:45 25.34273 56.01751 31484 ft 469 kts 340°
2026-05-06 15:45 25.37470 56.00791 31628 ft 469 kts 340°
2026-05-06 15:46 25.40618 55.99847 31795 ft 468 kts 340°
2026-05-06 15:46 25.43770 55.98901 31978 ft 467 kts 340°
2026-05-06 15:46 25.46899 55.97960 32147 ft 467 kts 340°
2026-05-06 15:46 25.50116 55.96993 32331 ft 466 kts 340°
2026-05-06 15:47 25.53224 55.96058 32522 ft 465 kts 340°
2026-05-06 15:47 25.56366 55.95112 32679 ft 464 kts 340°
2026-05-06 15:47 25.59498 55.94168 32859 ft 464 kts 340°
2026-05-06 15:47 25.62657 55.93216 33013 ft 463 kts 340°
2026-05-06 15:48 25.65818 55.92263 33168 ft 463 kts 340°
2026-05-06 15:48 25.68953 55.91318 33340 ft 463 kts 340°
2026-05-06 15:48 25.72041 55.90385 33509 ft 462 kts 340°
2026-05-06 15:48 25.75172 55.89441 33658 ft 462 kts 339°
2026-05-06 15:49 25.78322 55.88488 33791 ft 463 kts 339°
2026-05-06 15:49 25.81441 55.87545 33769 ft 466 kts 339°
2026-05-06 15:49 25.87744 55.85638 33783 ft 469 kts 339°
2026-05-06 15:50 25.94050 55.83729 33780 ft 466 kts 339°
2026-05-06 15:50 26.00309 55.81830 33781 ft 465 kts 339°
2026-05-06 15:51 26.06574 55.79950 33775 ft 466 kts 342°
2026-05-06 15:51 26.13131 55.79335 33788 ft 476 kts 351°
2026-05-06 15:52 26.19449 55.77731 33788 ft 457 kts 326°
2026-05-06 15:52 26.21973 55.75699 33780 ft 447 kts 311°
2026-05-06 15:52 26.23905 55.73020 33793 ft 441 kts 301°
2026-05-06 15:53 26.27660 55.67553 33756 ft 442 kts 304°
2026-05-06 15:53 26.31481 55.62233 33760 ft 441 kts 304°
2026-05-06 15:54 26.35339 55.56878 33761 ft 441 kts 304°
2026-05-06 15:54 26.39196 55.51530 33759 ft 442 kts 305°
2026-05-06 15:55 26.43073 55.46182 33764 ft 442 kts 304°
2026-05-06 15:55 26.46963 55.40807 33766 ft 441 kts 304°
2026-05-06 15:56 26.50829 55.35461 33771 ft 442 kts 304°
2026-05-06 15:56 26.54701 55.30094 33790 ft 442 kts 304°
2026-05-06 15:57 26.58561 55.24734 33792 ft 441 kts 304°
2026-05-06 15:57 26.62414 55.19379 33788 ft 441 kts 304°
2026-05-06 15:58 26.66249 55.14042 33802 ft 440 kts 304°
2026-05-06 15:58 26.70070 55.08717 33811 ft 440 kts 303°
2026-05-06 15:59 26.73896 55.03380 33807 ft 441 kts 303°
2026-05-06 15:59 26.77730 54.98024 33807 ft 440 kts 303°
2026-05-06 16:00 26.81555 54.92654 33811 ft 441 kts 303°
2026-05-06 16:00 26.85375 54.87281 33816 ft 440 kts 303°
2026-05-06 16:01 26.89172 54.81931 33833 ft 440 kts 303°
2026-05-06 16:01 26.92975 54.76569 33855 ft 440 kts 303°
2026-05-06 16:02 26.96800 54.71166 33876 ft 440 kts 303°
2026-05-06 16:02 27.00588 54.65807 33904 ft 440 kts 303°
2026-05-06 16:03 27.04413 54.60394 33921 ft 439 kts 303°
2026-05-06 16:03 27.08196 54.55030 33939 ft 439 kts 303°
2026-05-06 16:04 27.11975 54.49668 33949 ft 438 kts 303°
2026-05-06 16:04 27.15743 54.44315 33964 ft 437 kts 303°
2026-05-06 16:05 27.19512 54.38954 33997 ft 438 kts 303°
2026-05-06 16:05 27.23295 54.33566 34045 ft 437 kts 302°
2026-05-06 16:06 27.27049 54.28211 34096 ft 437 kts 302°
2026-05-06 16:06 27.30810 54.22839 34102 ft 437 kts 302°
2026-05-06 16:07 27.34558 54.17482 34086 ft 437 kts 302°
2026-05-06 16:07 27.38324 54.12093 34067 ft 437 kts 302°
2026-05-06 16:08 27.42064 54.06735 34048 ft 437 kts 302°
2026-05-06 16:08 27.45817 54.01349 34021 ft 437 kts 302°
2026-05-06 16:09 27.49560 53.95970 33987 ft 437 kts 302°
2026-05-06 16:09 27.53293 53.90604 33984 ft 437 kts 303°
2026-05-06 16:10 27.55449 53.88147 33965 ft 449 kts 317°
2026-05-06 16:10 27.58197 53.86353 34029 ft 459 kts 326°
2026-05-06 16:10 27.63833 53.82952 33998 ft 458 kts 323°
2026-05-06 16:11 27.69367 53.79459 34000 ft 456 kts 323°
2026-05-06 16:11 27.74926 53.75930 34000 ft 458 kts 323°
2026-05-06 16:12 27.80453 53.72418 34004 ft 457 kts 323°
2026-05-06 16:12 27.85988 53.68895 34019 ft 458 kts 323°
2026-05-06 16:13 27.91538 53.65358 34039 ft 457 kts 323°
2026-05-06 16:13 27.97070 53.61829 34059 ft 456 kts 323°
2026-05-06 16:14 28.02605 53.58294 34079 ft 456 kts 323°
2026-05-06 16:14 28.08129 53.54761 34086 ft 457 kts 323°
2026-05-06 16:15 28.13691 53.51200 34061 ft 457 kts 323°
2026-05-06 16:15 28.19188 53.47677 34070 ft 455 kts 322°
2026-05-06 16:16 28.24731 53.44118 34075 ft 457 kts 322°
2026-05-06 16:16 28.30270 53.40560 34081 ft 456 kts 322°
2026-05-06 16:17 28.35803 53.36999 34104 ft 457 kts 322°
2026-05-06 16:17 28.41330 53.33439 34159 ft 456 kts 322°
2026-05-06 16:18 28.46850 53.29881 34187 ft 454 kts 322°
2026-05-06 16:18 28.52328 53.26343 34192 ft 454 kts 322°
2026-05-06 16:19 28.57834 53.22735 34230 ft 455 kts 321°
2026-05-06 16:19 28.63297 53.19144 34290 ft 453 kts 321°
2026-05-06 16:20 28.68746 53.15559 34322 ft 452 kts 321°
2026-05-06 16:20 28.74205 53.11960 34373 ft 455 kts 321°
2026-05-06 16:21 28.79712 53.08329 34388 ft 454 kts 321°
2026-05-06 16:21 28.85183 53.04715 34380 ft 454 kts 321°
2026-05-06 16:22 28.90653 53.01097 34367 ft 455 kts 321°
2026-05-06 16:22 28.96103 52.97488 34365 ft 453 kts 321°
2026-05-06 16:23 29.01585 52.93853 34380 ft 455 kts 321°
2026-05-06 16:23 29.07073 52.90213 34391 ft 452 kts 321°
2026-05-06 16:24 29.12553 52.86573 34382 ft 451 kts 321°
2026-05-06 16:24 29.18008 52.82948 34361 ft 453 kts 321°
2026-05-06 16:25 29.23468 52.79310 34346 ft 453 kts 320°
2026-05-06 16:25 29.28944 52.75661 34320 ft 453 kts 321°
2026-05-06 16:26 29.34395 52.72022 34298 ft 456 kts 320°
2026-05-06 16:26 29.39881 52.68357 34262 ft 454 kts 320°
2026-05-06 16:27 29.45342 52.64701 34261 ft 455 kts 321°
2026-05-06 16:27 29.50844 52.61015 34222 ft 456 kts 320°
2026-05-06 16:28 29.55811 52.56764 34224 ft 431 kts 302°
2026-05-06 16:28 29.59691 52.51487 34226 ft 435 kts 302°
2026-05-06 16:29 29.63685 52.46228 34270 ft 434 kts 303°
2026-05-06 16:29 29.67651 52.41014 34310 ft 434 kts 303°
2026-05-06 16:30 29.70948 52.36679 34329 ft 434 kts 303°
2026-05-06 16:30 29.75633 52.30512 34404 ft 435 kts 302°
2026-05-06 16:31 29.79603 52.25278 34443 ft 435 kts 302°
2026-05-06 16:31 29.83590 52.20013 34440 ft 435 kts 302°
2026-05-06 16:32 29.87707 52.14934 34405 ft 450 kts 313°
2026-05-06 16:32 29.93154 52.11095 34406 ft 459 kts 319°
2026-05-06 16:33 29.98564 52.07225 34417 ft 458 kts 318°
2026-05-06 16:34 30.06660 52.01378 34409 ft 457 kts 318°
2026-05-06 16:34 30.12046 51.97476 34408 ft 456 kts 318°
2026-05-06 16:35 30.17425 51.93578 34430 ft 456 kts 318°
2026-05-06 16:35 30.22797 51.89678 34452 ft 457 kts 318°
2026-05-06 16:36 30.28176 51.85768 34465 ft 455 kts 318°
2026-05-06 16:36 30.33514 51.81883 34455 ft 454 kts 318°
2026-05-06 16:37 30.38872 51.77978 34460 ft 453 kts 318°
2026-05-06 16:37 30.44232 51.74065 34446 ft 456 kts 318°
2026-05-06 16:38 30.49551 51.70181 34440 ft 454 kts 318°
2026-05-06 16:38 30.54891 51.66272 34398 ft 452 kts 317°
2026-05-06 16:39 30.60232 51.62360 34365 ft 455 kts 318°
2026-05-06 16:39 30.65597 51.58424 34354 ft 453 kts 318°
2026-05-06 16:40 30.70908 51.54481 34301 ft 452 kts 316°
2026-05-06 16:40 30.76142 51.50454 34314 ft 451 kts 317°
2026-05-06 16:41 30.81391 51.46419 34337 ft 450 kts 316°
2026-05-06 16:41 30.86615 51.42397 34362 ft 451 kts 316°
2026-05-06 16:42 30.91845 51.38364 34410 ft 453 kts 316°
2026-05-06 16:42 30.97111 51.34302 34420 ft 450 kts 315°
2026-05-06 16:43 31.02329 51.30267 34441 ft 453 kts 316°
2026-05-06 16:43 31.07563 51.26217 34436 ft 449 kts 315°
2026-05-06 16:44 31.12760 51.22189 34417 ft 449 kts 316°
2026-05-06 16:44 31.17959 51.18154 34414 ft 450 kts 315°
2026-05-06 16:45 31.23205 51.14076 34419 ft 452 kts 316°
2026-05-06 16:45 31.28462 51.09985 34424 ft 457 kts 316°
2026-05-06 16:46 31.33806 51.05821 34425 ft 461 kts 316°
2026-05-06 16:46 31.39171 51.01636 34422 ft 464 kts 316°
2026-05-06 16:47 31.44575 50.97412 34414 ft 466 kts 316°
2026-05-06 16:47 31.49958 50.93201 34427 ft 468 kts 316°
2026-05-06 16:48 31.55423 50.88918 34416 ft 469 kts 316°
2026-05-06 16:48 31.60849 50.84660 34434 ft 470 kts 316°
2026-05-06 16:49 31.66284 50.80390 34460 ft 469 kts 316°
2026-05-06 16:49 31.71725 50.76109 34467 ft 469 kts 316°
2026-05-06 16:50 31.77179 50.71812 34483 ft 469 kts 316°
2026-05-06 16:50 31.82597 50.67536 34479 ft 471 kts 316°
2026-05-06 16:51 31.88051 50.63223 34454 ft 473 kts 316°
2026-05-06 16:51 31.93503 50.58912 34449 ft 472 kts 316°
2026-05-06 16:52 31.98967 50.54579 34434 ft 472 kts 316°
2026-05-06 16:52 32.04397 50.50268 34410 ft 472 kts 316°
2026-05-06 16:53 32.09842 50.45940 34413 ft 472 kts 316°
2026-05-06 16:53 32.15308 50.41589 34402 ft 472 kts 316°
2026-05-06 16:54 32.20755 50.37245 34420 ft 471 kts 316°
2026-05-06 16:54 32.26192 50.32903 34440 ft 472 kts 315°
2026-05-06 16:55 32.31596 50.28582 34433 ft 471 kts 316°
2026-05-06 16:55 32.37045 50.24219 34423 ft 473 kts 316°
2026-05-06 16:56 32.42504 50.19840 34420 ft 472 kts 316°
2026-05-06 16:56 32.47940 50.15473 34411 ft 473 kts 316°
2026-05-06 16:57 32.53363 50.11113 34422 ft 474 kts 316°
2026-05-06 16:57 32.58810 50.06724 34433 ft 470 kts 316°
2026-05-06 16:58 32.64236 50.02346 34437 ft 473 kts 316°
2026-05-06 16:58 32.69672 49.97955 34443 ft 474 kts 316°
2026-05-06 16:59 32.75125 49.93541 34435 ft 474 kts 316°
2026-05-06 16:59 32.80580 49.89122 34430 ft 473 kts 316°
2026-05-06 17:00 32.86010 49.84711 34423 ft 472 kts 316°
2026-05-06 17:00 32.91427 49.80313 34415 ft 474 kts 316°
2026-05-06 17:01 32.96874 49.75874 34411 ft 475 kts 316°
2026-05-06 17:01 33.02322 49.71433 34429 ft 474 kts 316°
2026-05-06 17:02 33.07752 49.66999 34419 ft 474 kts 316°
2026-05-06 17:02 33.13205 49.62538 34403 ft 475 kts 316°
2026-05-06 17:03 33.18647 49.58084 34385 ft 472 kts 316°
2026-05-06 17:03 33.24041 49.53616 34392 ft 473 kts 315°
2026-05-06 17:04 33.29442 49.49123 34389 ft 474 kts 316°
2026-05-06 17:04 33.34856 49.44615 34362 ft 473 kts 315°
2026-05-06 17:05 33.40255 49.40109 34343 ft 473 kts 315°
2026-05-06 17:05 33.45638 49.35613 34314 ft 473 kts 315°
2026-05-06 17:06 33.51048 49.31080 34318 ft 473 kts 315°
2026-05-06 17:06 33.56434 49.26569 34320 ft 472 kts 315°
2026-05-06 17:07 33.61860 49.22014 34309 ft 474 kts 315°
2026-05-06 17:07 33.67247 49.17482 34307 ft 474 kts 315°
2026-05-06 17:08 33.72646 49.12937 34295 ft 472 kts 315°
2026-05-06 17:08 33.78019 49.08403 34290 ft 473 kts 315°
2026-05-06 17:09 33.83386 49.03870 34290 ft 475 kts 315°
2026-05-06 17:09 33.88807 48.99284 34297 ft 475 kts 315°
2026-05-06 17:10 33.94223 48.94693 34296 ft 474 kts 315°
2026-05-06 17:10 33.99607 48.90122 34311 ft 475 kts 315°
2026-05-06 17:11 34.05011 48.85529 34313 ft 474 kts 315°
2026-05-06 17:11 34.10395 48.80946 34296 ft 474 kts 315°
2026-05-06 17:12 34.15815 48.76322 34283 ft 474 kts 315°
2026-05-06 17:12 34.21166 48.71751 34266 ft 474 kts 315°
2026-05-06 17:13 34.26528 48.67162 34260 ft 473 kts 315°
2026-05-06 17:13 34.31887 48.62571 34261 ft 474 kts 315°
2026-05-06 17:14 34.37273 48.57949 34258 ft 474 kts 315°
2026-05-06 17:14 34.42672 48.53305 34254 ft 476 kts 315°
2026-05-06 17:15 34.48060 48.48665 34257 ft 474 kts 315°
2026-05-06 17:15 34.53464 48.44004 34241 ft 473 kts 315°
2026-05-06 17:16 34.58800 48.39397 34239 ft 471 kts 315°
2026-05-06 17:16 34.64130 48.34784 34229 ft 473 kts 315°
2026-05-06 17:17 34.69492 48.30138 34247 ft 472 kts 315°
2026-05-06 17:17 34.74855 48.25480 34246 ft 474 kts 315°
2026-05-06 17:18 34.80249 48.20791 34236 ft 475 kts 315°
2026-05-06 17:18 34.85620 48.16112 34225 ft 474 kts 315°
2026-05-06 17:19 34.90982 48.11436 34210 ft 474 kts 315°
2026-05-06 17:19 34.96346 48.06747 34214 ft 476 kts 315°
2026-05-06 17:20 35.01678 48.02082 34208 ft 474 kts 315°
2026-05-06 17:20 35.07019 47.97400 34215 ft 471 kts 315°
2026-05-06 17:21 35.12431 47.92788 34199 ft 477 kts 319°
2026-05-06 17:21 35.18053 47.88495 34199 ft 478 kts 319°
2026-05-06 17:22 35.23670 47.84148 34199 ft 477 kts 319°
2026-05-06 17:22 35.29255 47.79811 34196 ft 478 kts 319°
2026-05-06 17:23 35.34895 47.75427 34192 ft 479 kts 319°
2026-05-06 17:23 35.40528 47.71039 34192 ft 480 kts 319°
2026-05-06 17:24 35.46139 47.66662 34192 ft 479 kts 319°
2026-05-06 17:24 35.51744 47.62281 34182 ft 479 kts 319°
2026-05-06 17:25 35.57375 47.57874 34179 ft 480 kts 318°
2026-05-06 17:25 35.63001 47.53463 34171 ft 480 kts 319°
2026-05-06 17:26 35.68612 47.49056 34175 ft 479 kts 319°
2026-05-06 17:26 35.74263 47.44609 34174 ft 480 kts 318°
2026-05-06 17:27 35.79866 47.40195 34185 ft 479 kts 318°
2026-05-06 17:27 35.85468 47.35772 34181 ft 481 kts 318°
2026-05-06 17:28 35.91108 47.31311 34198 ft 479 kts 317°
2026-05-06 17:28 35.96670 47.26906 34201 ft 478 kts 317°
2026-05-06 17:29 36.02251 47.22476 34195 ft 478 kts 317°
2026-05-06 17:29 36.07866 47.18014 34187 ft 477 kts 317°
2026-05-06 17:30 36.13476 47.13547 34158 ft 479 kts 317°
2026-05-06 17:30 36.19111 47.09052 34181 ft 478 kts 317°
2026-05-06 17:31 36.24680 47.04608 34183 ft 479 kts 317°
2026-05-06 17:31 36.30335 47.00091 34186 ft 479 kts 318°
2026-05-06 17:32 36.35923 46.95622 34179 ft 480 kts 318°
2026-05-06 17:32 36.41538 46.91120 34171 ft 479 kts 318°
2026-05-06 17:33 36.47150 46.86615 34169 ft 477 kts 318°
2026-05-06 17:33 36.52732 46.82125 34169 ft 477 kts 318°
2026-05-06 17:34 36.58349 46.77600 34166 ft 478 kts 318°
2026-05-06 17:34 36.63926 46.73100 34164 ft 476 kts 318°
2026-05-06 17:35 36.69510 46.68585 34151 ft 478 kts 317°
2026-05-06 17:35 36.75101 46.64054 34154 ft 477 kts 318°
2026-05-06 17:36 36.83485 46.57249 34158 ft 478 kts 318°
2026-05-06 17:36 36.89072 46.52705 34155 ft 480 kts 318°
2026-05-06 17:37 36.94634 46.48171 34154 ft 477 kts 318°
2026-05-06 17:37 37.00216 46.43614 34143 ft 479 kts 318°
2026-05-06 17:38 37.05794 46.39050 34132 ft 479 kts 318°
2026-05-06 17:38 37.11383 46.34472 34124 ft 481 kts 317°
2026-05-06 17:39 37.17007 46.29854 34118 ft 479 kts 317°
2026-05-06 17:39 37.22597 46.25259 34102 ft 478 kts 317°
2026-05-06 17:40 37.28183 46.20657 34098 ft 479 kts 317°
2026-05-06 17:40 37.33781 46.16037 34087 ft 480 kts 317°
2026-05-06 17:41 37.39367 46.11420 34080 ft 480 kts 317°
2026-05-06 17:41 37.45000 46.06754 34081 ft 480 kts 317°
2026-05-06 17:42 37.50555 46.02144 34090 ft 482 kts 317°
2026-05-06 17:42 37.56154 45.97489 34086 ft 483 kts 317°
2026-05-06 17:43 37.61753 45.92829 34092 ft 482 kts 318°
2026-05-06 17:43 37.64743 45.90853 34088 ft 497 kts 329°
2026-05-06 17:43 37.67966 45.89240 34110 ft 497 kts 329°
2026-05-06 17:44 37.74315 45.85887 34099 ft 497 kts 328°
2026-05-06 17:44 37.80696 45.82475 34100 ft 497 kts 328°
2026-05-06 17:45 37.87062 45.79061 34095 ft 499 kts 328°
2026-05-06 17:45 37.93438 45.75633 34092 ft 499 kts 328°
2026-05-06 17:46 37.99791 45.72213 34097 ft 499 kts 328°
2026-05-06 17:46 38.06137 45.68792 34103 ft 490 kts 328°
2026-05-06 17:47 38.12345 45.65438 34097 ft 475 kts 328°
2026-05-06 17:47 38.18357 45.62180 34097 ft 469 kts 328°
2026-05-06 17:48 38.24472 45.58859 34104 ft 479 kts 328°
2026-05-06 17:48 38.30691 45.55479 34093 ft 488 kts 328°
2026-05-06 17:49 38.36991 45.52050 34091 ft 494 kts 328°
2026-05-06 17:49 38.42646 45.47566 34083 ft 465 kts 305°
2026-05-06 17:50 38.44476 45.44310 34091 ft 447 kts 289°
2026-05-06 17:50 38.45753 45.40724 34100 ft 446 kts 287°
2026-05-06 17:50 38.48464 45.33480 34073 ft 451 kts 288°
2026-05-06 17:51 38.51213 45.26283 34075 ft 453 kts 288°
2026-05-06 17:51 38.53967 45.19073 34067 ft 451 kts 288°
2026-05-06 17:52 38.56684 45.11948 34065 ft 447 kts 288°
2026-05-06 17:52 38.59410 45.04778 34074 ft 448 kts 288°
2026-05-06 17:53 38.62125 44.97619 34069 ft 448 kts 288°
2026-05-06 17:53 38.64850 44.90420 34082 ft 449 kts 289°
2026-05-06 17:54 38.67549 44.83273 34085 ft 450 kts 289°
2026-05-06 17:54 38.70257 44.76086 34099 ft 450 kts 289°
2026-05-06 17:55 38.72979 44.68843 34102 ft 452 kts 289°
2026-05-06 17:55 38.75685 44.61625 34101 ft 452 kts 289°
2026-05-06 17:56 38.78400 44.54365 34099 ft 453 kts 289°
2026-05-06 17:56 38.81104 44.47119 34112 ft 453 kts 289°
2026-05-06 17:57 38.83812 44.39843 34117 ft 454 kts 289°
2026-05-06 17:57 38.86546 44.32479 34130 ft 454 kts 288°
2026-05-06 17:58 38.89236 44.25215 34135 ft 454 kts 289°
2026-05-06 17:58 38.91944 44.17871 34138 ft 455 kts 288°
2026-05-06 17:59 38.94626 44.10558 34143 ft 455 kts 289°
2026-05-06 17:59 38.97300 44.03251 34049 ft 446 kts 289°
2026-05-06 18:00 38.98599 43.99699 34140 ft 431 kts 288°
2026-05-06 18:00 38.99858 43.96242 34239 ft 432 kts 288°
2026-05-06 18:00 39.01158 43.92660 34126 ft 441 kts 289°
2026-05-06 18:00 39.02467 43.89064 34141 ft 445 kts 289°
2026-05-06 18:01 39.05112 43.81781 34135 ft 452 kts 289°
2026-05-06 18:01 39.07784 43.74406 34130 ft 458 kts 289°
2026-05-06 18:02 39.10490 43.66916 34128 ft 461 kts 289°
2026-05-06 18:02 39.13180 43.59453 34120 ft 461 kts 289°
2026-05-06 18:03 39.15873 43.51964 34110 ft 458 kts 289°
2026-05-06 18:03 39.18216 43.45434 34109 ft 457 kts 289°
2026-05-06 18:04 39.20874 43.38003 34107 ft 457 kts 289°
2026-05-06 18:04 39.23534 43.30548 34124 ft 457 kts 289°
2026-05-06 18:05 39.26189 43.23089 34122 ft 458 kts 289°
2026-05-06 18:05 39.28859 43.15570 34117 ft 458 kts 289°
2026-05-06 18:06 39.31499 43.08115 34114 ft 457 kts 289°
2026-05-06 18:06 39.34128 43.00674 34111 ft 457 kts 289°
2026-05-06 18:07 39.36780 42.93145 34105 ft 459 kts 289°
2026-05-06 18:07 39.39404 42.85682 34120 ft 460 kts 289°
2026-05-06 18:08 39.42065 42.78088 34118 ft 461 kts 289°
2026-05-06 18:08 39.44707 42.70530 34125 ft 462 kts 289°
2026-05-06 18:09 39.47361 42.62922 34122 ft 462 kts 289°
2026-05-06 18:09 39.49989 42.55363 34108 ft 462 kts 289°
2026-05-06 18:10 39.52630 42.47747 34103 ft 463 kts 289°
2026-05-06 18:10 39.55260 42.40147 34097 ft 462 kts 289°
2026-05-06 18:11 39.57898 42.32501 34097 ft 461 kts 289°
2026-05-06 18:11 39.60537 42.24830 34090 ft 462 kts 289°
2026-05-06 18:12 39.63134 42.17265 34091 ft 464 kts 289°
2026-05-06 18:12 39.65754 42.09610 34086 ft 465 kts 289°
2026-05-06 18:13 39.68377 42.01929 34084 ft 466 kts 289°
2026-05-06 18:13 39.70995 41.94238 34085 ft 467 kts 289°
2026-05-06 18:14 39.73635 41.86460 34084 ft 467 kts 289°
2026-05-06 18:14 39.76233 41.78791 34082 ft 467 kts 289°
2026-05-06 18:15 39.78855 41.71026 34080 ft 466 kts 289°
2026-05-06 18:15 39.81454 41.63306 34077 ft 466 kts 289°
2026-05-06 18:16 39.84048 41.55585 34080 ft 468 kts 289°
2026-05-06 18:16 39.86636 41.47855 34083 ft 468 kts 290°
2026-05-06 18:17 39.89234 41.40078 34087 ft 470 kts 289°
2026-05-06 18:17 39.91849 41.32230 34098 ft 470 kts 289°
2026-05-06 18:18 39.94439 41.24429 34101 ft 470 kts 289°
2026-05-06 18:18 39.96960 41.16562 34103 ft 468 kts 288°
2026-05-06 18:19 39.99382 41.08718 34102 ft 469 kts 288°
2026-05-06 18:19 40.01818 41.00816 34097 ft 469 kts 288°
2026-05-06 18:20 40.04247 40.92912 34092 ft 471 kts 288°
2026-05-06 18:20 40.06698 40.84921 34083 ft 474 kts 288°
2026-05-06 18:21 40.09122 40.76985 34084 ft 473 kts 289°
2026-05-06 18:21 40.11551 40.69010 34062 ft 472 kts 289°
2026-05-06 18:22 40.13979 40.61017 34066 ft 473 kts 289°
2026-05-06 18:22 40.16391 40.53054 34061 ft 472 kts 289°
2026-05-06 18:23 40.18804 40.45060 34073 ft 472 kts 289°
2026-05-06 18:23 40.21202 40.37094 34076 ft 471 kts 289°
2026-05-06 18:24 40.23586 40.29152 34085 ft 472 kts 289°
2026-05-06 18:24 40.25991 40.21115 34104 ft 473 kts 289°
2026-05-06 18:25 40.28381 40.13106 34103 ft 475 kts 289°
2026-05-06 18:25 40.30770 40.05076 34102 ft 476 kts 289°
2026-05-06 18:26 40.33141 39.97077 34092 ft 475 kts 289°
2026-05-06 18:26 40.35534 39.88986 34083 ft 474 kts 289°
2026-05-06 18:27 40.37900 39.80956 34095 ft 474 kts 289°
2026-05-06 18:27 40.40258 39.72933 34101 ft 475 kts 289°
2026-05-06 18:28 40.42627 39.64834 34095 ft 475 kts 289°
2026-05-06 18:28 40.44980 39.56743 34113 ft 477 kts 289°
2026-05-06 18:29 40.47324 39.48660 34135 ft 477 kts 289°
2026-05-06 18:29 40.49674 39.40527 34138 ft 477 kts 289°
2026-05-06 18:30 40.52016 39.32391 34141 ft 476 kts 289°
2026-05-06 18:30 40.54350 39.24267 34134 ft 475 kts 289°
2026-05-06 18:31 40.56664 39.16184 34130 ft 476 kts 289°
2026-05-06 18:31 40.58997 39.08012 34133 ft 478 kts 289°
2026-05-06 18:32 40.61321 38.99839 34133 ft 479 kts 289°
2026-05-06 18:32 40.63641 38.91656 34146 ft 478 kts 289°
2026-05-06 18:33 40.65928 38.83458 34154 ft 477 kts 289°
2026-05-06 18:33 40.68192 38.75285 34146 ft 478 kts 289°
2026-05-06 18:34 40.70467 38.67056 34156 ft 476 kts 289°
2026-05-06 18:34 40.72718 38.58882 34160 ft 477 kts 289°
2026-05-06 18:35 40.74969 38.50679 34156 ft 478 kts 289°
2026-05-06 18:35 40.77225 38.42433 34151 ft 478 kts 290°
2026-05-06 18:36 40.79468 38.34208 34149 ft 478 kts 289°
2026-05-06 18:36 40.81706 38.25968 34144 ft 479 kts 289°
2026-05-06 18:37 40.83950 38.17688 34147 ft 480 kts 289°
2026-05-06 18:37 40.86189 38.09397 34147 ft 480 kts 290°
2026-05-06 18:38 40.88401 38.01174 34154 ft 479 kts 290°
2026-05-06 18:38 40.90628 37.92874 34142 ft 479 kts 290°
2026-05-06 18:39 40.92846 37.84578 34145 ft 479 kts 290°
2026-05-06 18:40 40.96162 37.72121 34150 ft 481 kts 290°
2026-05-06 18:40 40.98356 37.63842 34147 ft 480 kts 290°
2026-05-06 18:41 41.00563 37.55489 34150 ft 480 kts 290°
2026-05-06 18:41 41.02742 37.47212 34154 ft 479 kts 290°
2026-05-06 18:42 41.04924 37.38898 34139 ft 479 kts 290°
2026-05-06 18:42 41.07100 37.30574 34152 ft 479 kts 289°
2026-05-06 18:43 41.09266 37.22266 34143 ft 480 kts 289°
2026-05-06 18:43 41.11444 37.13878 34142 ft 480 kts 290°
2026-05-06 18:44 41.13609 37.05515 34149 ft 479 kts 290°
2026-05-06 18:44 41.15754 36.97198 34158 ft 478 kts 290°
2026-05-06 18:45 41.17904 36.88835 34147 ft 479 kts 290°
2026-05-06 18:45 41.20039 36.80502 34149 ft 479 kts 290°
2026-05-06 18:46 41.22164 36.72174 34149 ft 479 kts 290°
2026-05-06 18:46 41.24288 36.63824 34152 ft 478 kts 290°
2026-05-06 18:47 41.26407 36.55467 34161 ft 479 kts 290°
2026-05-06 18:47 41.28549 36.47090 34149 ft 480 kts 290°
2026-05-06 18:48 41.30686 36.38705 34156 ft 480 kts 290°
2026-05-06 18:48 41.32825 36.30287 34157 ft 479 kts 290°
2026-05-06 18:49 41.34952 36.21887 34148 ft 479 kts 290°
2026-05-06 18:49 41.37067 36.13509 34157 ft 478 kts 290°
2026-05-06 18:50 41.39165 36.05162 34150 ft 478 kts 290°
2026-05-06 18:50 41.41262 35.96793 34145 ft 479 kts 290°
2026-05-06 18:51 41.43358 35.88394 34149 ft 478 kts 290°
2026-05-06 18:51 41.45446 35.80003 34149 ft 478 kts 290°
2026-05-06 18:52 41.47528 35.71605 34143 ft 478 kts 290°
2026-05-06 18:52 41.49602 35.63209 34127 ft 479 kts 290°
2026-05-06 18:53 41.51679 35.54768 34133 ft 479 kts 291°
2026-05-06 18:53 41.53729 35.46412 34135 ft 477 kts 290°
2026-05-06 18:54 41.55788 35.37981 34122 ft 479 kts 291°
2026-05-06 18:54 41.57843 35.29539 34126 ft 479 kts 290°
2026-05-06 18:55 41.59891 35.21099 34124 ft 479 kts 290°
2026-05-06 18:55 41.61923 35.12691 34128 ft 479 kts 290°
2026-05-06 18:56 41.63957 35.04245 34123 ft 479 kts 290°
2026-05-06 18:56 41.65998 34.95742 34121 ft 480 kts 291°
2026-05-06 18:57 41.68014 34.87307 34120 ft 479 kts 291°
2026-05-06 18:57 41.70023 34.78869 34124 ft 479 kts 291°
2026-05-06 18:58 41.72048 34.70340 34113 ft 478 kts 291°
2026-05-06 18:58 41.74033 34.61943 34103 ft 477 kts 291°
2026-05-06 18:59 41.76024 34.53486 34114 ft 478 kts 290°
2026-05-06 18:59 41.78010 34.45020 34103 ft 478 kts 290°
2026-05-06 19:00 41.80005 34.36484 34108 ft 479 kts 291°
2026-05-06 19:00 41.81976 34.28020 34105 ft 478 kts 290°
2026-05-06 19:01 41.83949 34.19517 34106 ft 477 kts 290°
2026-05-06 19:01 41.85901 34.11069 34102 ft 476 kts 290°
2026-05-06 19:02 41.87845 34.02627 34103 ft 475 kts 290°
2026-05-06 19:02 41.89783 33.94172 34098 ft 477 kts 290°
2026-05-06 19:03 41.91721 33.85691 34095 ft 476 kts 290°
2026-05-06 19:03 41.93647 33.77228 34093 ft 475 kts 290°
2026-05-06 19:04 41.95538 33.68726 34095 ft 476 kts 288°
2026-05-06 19:04 41.97172 33.60157 34092 ft 475 kts 288°
2026-05-06 19:05 41.98813 33.51623 34093 ft 474 kts 288°
2026-05-06 19:05 42.00455 33.43059 34101 ft 474 kts 288°
2026-05-06 19:06 42.02092 33.34482 34107 ft 474 kts 288°
2026-05-06 19:06 42.03713 33.25947 34101 ft 475 kts 288°
2026-05-06 19:07 42.05342 33.17334 34220 ft 474 kts 288°
2026-05-06 19:07 42.06143 33.13085 34350 ft 473 kts 288°
2026-05-06 19:07 42.06950 33.08797 34457 ft 473 kts 288°
2026-05-06 19:07 42.07799 33.04556 34581 ft 471 kts 289°
2026-05-06 19:08 42.08667 33.00341 34690 ft 470 kts 289°
2026-05-06 19:08 42.09541 32.96081 34797 ft 470 kts 289°
2026-05-06 19:08 42.10405 32.91855 34893 ft 470 kts 289°
2026-05-06 19:08 42.11263 32.87643 35004 ft 469 kts 289°
2026-05-06 19:09 42.12128 32.83391 35113 ft 469 kts 289°
2026-05-06 19:09 42.12984 32.79177 35228 ft 469 kts 289°
2026-05-06 19:09 42.13833 32.74983 35339 ft 468 kts 289°
2026-05-06 19:09 42.14682 32.70786 35451 ft 467 kts 289°
2026-05-06 19:10 42.15535 32.66555 35552 ft 467 kts 289°
2026-05-06 19:10 42.16379 32.62368 35665 ft 466 kts 289°
2026-05-06 19:10 42.17215 32.58199 35766 ft 465 kts 289°
2026-05-06 19:10 42.18059 32.53984 35873 ft 465 kts 289°
2026-05-06 19:11 42.18900 32.49774 35987 ft 464 kts 289°
2026-05-06 19:11 42.19724 32.45634 36098 ft 464 kts 289°
2026-05-06 19:11 42.20560 32.41434 36099 ft 467 kts 289°
2026-05-06 19:12 42.22240 32.32956 36111 ft 471 kts 288°
2026-05-06 19:12 42.23930 32.24398 36105 ft 472 kts 288°
2026-05-06 19:13 42.25599 32.15881 36100 ft 469 kts 288°
2026-05-06 19:13 42.27267 32.07353 36108 ft 468 kts 288°
2026-05-06 19:14 42.28922 31.98886 36111 ft 468 kts 288°
2026-05-06 19:14 42.30573 31.90399 36120 ft 469 kts 288°
2026-05-06 19:15 42.32224 31.81879 36117 ft 468 kts 288°
2026-05-06 19:15 42.33868 31.73358 36121 ft 468 kts 288°
2026-05-06 19:16 42.35495 31.64881 36109 ft 467 kts 288°
2026-05-06 19:16 42.37118 31.56390 36116 ft 468 kts 288°
2026-05-06 19:17 42.38744 31.47852 36110 ft 469 kts 288°
2026-05-06 19:17 42.40366 31.39290 36109 ft 468 kts 288°
2026-05-06 19:18 42.41968 31.30804 36106 ft 469 kts 287°
2026-05-06 19:18 42.43567 31.22295 36101 ft 468 kts 287°
2026-05-06 19:19 42.45163 31.13758 36096 ft 468 kts 287°
2026-05-06 19:19 42.46740 31.05282 36100 ft 468 kts 287°
2026-05-06 19:20 42.48328 30.96695 36098 ft 469 kts 287°
2026-05-06 19:20 42.49905 30.88132 36102 ft 468 kts 287°
2026-05-06 19:21 42.51476 30.79568 36101 ft 468 kts 287°
2026-05-06 19:21 42.53037 30.71011 36097 ft 468 kts 287°
2026-05-06 19:22 42.54586 30.62490 36094 ft 468 kts 287°
2026-05-06 19:22 42.56125 30.53980 36096 ft 468 kts 287°
2026-05-06 19:23 42.57664 30.45430 36091 ft 468 kts 287°
2026-05-06 19:23 42.59195 30.36890 36093 ft 467 kts 287°
2026-05-06 19:24 42.61117 30.28482 36083 ft 461 kts 300°
2026-05-06 19:24 42.62870 30.24880 36103 ft 456 kts 312°
2026-05-06 19:24 42.65139 30.21911 36094 ft 453 kts 324°
2026-05-06 19:25 42.70394 30.17236 36093 ft 452 kts 326°
2026-05-06 19:25 42.75514 30.12293 36094 ft 452 kts 326°
2026-05-06 19:26 42.80609 30.07297 36085 ft 452 kts 326°
2026-05-06 19:26 42.85711 30.02275 36089 ft 453 kts 326°
2026-05-06 19:27 42.90814 29.97242 36093 ft 453 kts 326°
2026-05-06 19:27 42.95893 29.92221 36088 ft 451 kts 325°
2026-05-06 19:28 43.01003 29.87159 36088 ft 452 kts 325°
2026-05-06 19:28 43.06088 29.82110 36088 ft 451 kts 325°
2026-05-06 19:29 43.11153 29.77072 36091 ft 451 kts 326°
2026-05-06 19:29 43.16233 29.72007 36096 ft 452 kts 326°
2026-05-06 19:30 43.21305 29.66941 36095 ft 453 kts 326°
2026-05-06 19:30 43.26407 29.61834 36095 ft 454 kts 326°
2026-05-06 19:31 43.31502 29.56722 36095 ft 453 kts 326°
2026-05-06 19:31 43.39104 29.49075 36094 ft 452 kts 326°
2026-05-06 19:32 43.44172 29.43964 36095 ft 453 kts 325°
2026-05-06 19:32 43.49271 29.38810 36095 ft 453 kts 325°
2026-05-06 19:33 43.54352 29.33664 36092 ft 453 kts 325°
2026-05-06 19:33 43.59436 29.28504 36095 ft 453 kts 325°
2026-05-06 19:34 43.64526 29.23326 36093 ft 452 kts 324°
2026-05-06 19:34 43.69593 29.18160 36091 ft 452 kts 325°
2026-05-06 19:35 43.74698 29.13046 36085 ft 452 kts 329°
2026-05-06 19:35 43.80145 29.08679 36092 ft 453 kts 330°
2026-05-06 19:36 43.85561 29.04209 36091 ft 451 kts 330°
2026-05-06 19:36 43.90960 28.99723 36087 ft 452 kts 330°
2026-05-06 19:37 43.96334 28.95246 36089 ft 452 kts 330°
2026-05-06 19:37 44.01719 28.90750 36086 ft 451 kts 330°
2026-05-06 19:38 44.07064 28.86279 36087 ft 451 kts 330°
2026-05-06 19:38 44.12497 28.81723 36094 ft 452 kts 330°
2026-05-06 19:39 44.17852 28.77223 36092 ft 451 kts 330°
2026-05-06 19:39 44.23241 28.72686 36092 ft 451 kts 330°
2026-05-06 19:40 44.28619 28.68147 36088 ft 449 kts 330°
2026-05-06 19:40 44.33962 28.63629 36095 ft 450 kts 330°
2026-05-06 19:41 44.39313 28.59094 36091 ft 449 kts 330°
2026-05-06 19:41 44.44698 28.54521 36093 ft 450 kts 330°
2026-05-06 19:42 44.50026 28.49985 36087 ft 449 kts 330°
2026-05-06 19:42 44.55379 28.45418 36088 ft 450 kts 330°
2026-05-06 19:43 44.60730 28.40844 36086 ft 449 kts 330°
2026-05-06 19:43 44.66083 28.36258 36080 ft 449 kts 330°
2026-05-06 19:44 44.71435 28.31662 36075 ft 449 kts 329°
2026-05-06 19:44 44.76802 28.27044 36077 ft 449 kts 329°
2026-05-06 19:45 44.82135 28.22444 36073 ft 448 kts 329°
2026-05-06 19:45 44.87420 28.17876 36069 ft 447 kts 329°
2026-05-06 19:46 44.92761 28.13249 36068 ft 448 kts 329°
2026-05-06 19:46 44.98080 28.08631 36067 ft 447 kts 329°
2026-05-06 19:47 45.03392 28.04011 36083 ft 448 kts 329°
2026-05-06 19:47 45.08723 27.99362 36082 ft 448 kts 329°
2026-05-06 19:48 45.14054 27.94703 36089 ft 448 kts 329°
2026-05-06 19:48 45.18813 27.90178 36072 ft 449 kts 319°
2026-05-06 19:49 45.20905 27.86830 36091 ft 452 kts 307°
2026-05-06 19:49 45.22545 27.83040 36097 ft 454 kts 304°
2026-05-06 19:49 45.25932 27.75426 36084 ft 453 kts 305°
2026-05-06 19:50 45.29342 27.67889 36075 ft 453 kts 305°
2026-05-06 19:50 45.32774 27.60298 36062 ft 453 kts 305°
2026-05-06 19:51 45.36173 27.52762 36066 ft 453 kts 305°
2026-05-06 19:51 45.39580 27.45190 36065 ft 453 kts 305°
2026-05-06 19:52 45.42973 27.37628 36064 ft 452 kts 305°
2026-05-06 19:52 45.46385 27.30004 36057 ft 452 kts 304°
2026-05-06 19:53 45.49769 27.22421 36050 ft 451 kts 304°
2026-05-06 19:53 45.53127 27.14876 36052 ft 451 kts 304°
2026-05-06 19:54 45.56500 27.07278 36058 ft 451 kts 304°
2026-05-06 19:54 45.59848 26.99715 36054 ft 449 kts 304°
2026-05-06 19:55 45.63184 26.92157 36051 ft 449 kts 304°
2026-05-06 19:55 45.66519 26.84585 36057 ft 449 kts 304°
2026-05-06 19:56 45.69855 26.76989 36054 ft 451 kts 304°
2026-05-06 19:56 45.73184 26.69386 36054 ft 449 kts 304°
2026-05-06 19:57 45.76499 26.61797 36068 ft 449 kts 304°
2026-05-06 19:57 45.79808 26.54200 36077 ft 448 kts 304°
2026-05-06 19:58 45.83101 26.46621 36090 ft 448 kts 304°
2026-05-06 19:58 45.86416 26.38970 36079 ft 448 kts 304°
2026-05-06 19:59 45.89708 26.31350 36063 ft 448 kts 303°
2026-05-06 19:59 45.93005 26.23697 36060 ft 448 kts 303°
2026-05-06 20:00 45.96282 26.16073 36050 ft 448 kts 303°
2026-05-06 20:00 45.99549 26.08448 36050 ft 443 kts 303°
2026-05-06 20:01 46.02729 26.01007 36050 ft 433 kts 303°
2026-05-06 20:01 46.05897 25.93577 36048 ft 436 kts 303°
2026-05-06 20:02 46.09081 25.86088 36054 ft 436 kts 303°
2026-05-06 20:02 46.12251 25.78614 36060 ft 437 kts 303°
2026-05-06 20:03 46.15427 25.71100 36069 ft 435 kts 303°
2026-05-06 20:03 46.18567 25.63655 36067 ft 435 kts 303°
2026-05-06 20:04 46.21717 25.56163 36059 ft 436 kts 303°
2026-05-06 20:04 46.23289 25.52416 35931 ft 437 kts 303°
2026-05-06 20:04 46.24851 25.48689 35618 ft 430 kts 303°
2026-05-06 20:05 46.26383 25.45029 34955 ft 429 kts 303°
2026-05-06 20:05 46.27929 25.41332 34101 ft 431 kts 303°
2026-05-06 20:05 46.29476 25.37628 33078 ft 435 kts 303°
2026-05-06 20:05 46.31064 25.33823 32270 ft 442 kts 302°
2026-05-06 20:06 46.32676 25.29950 31547 ft 453 kts 302°
2026-05-06 20:06 46.34285 25.26081 30908 ft 451 kts 302°
2026-05-06 20:06 46.35931 25.22114 30338 ft 453 kts 301°
2026-05-06 20:06 46.37559 25.18183 29831 ft 455 kts 301°
2026-05-06 20:07 46.39198 25.14227 29308 ft 460 kts 301°
2026-05-06 20:07 46.40837 25.10260 28765 ft 462 kts 301°
2026-05-06 20:07 46.42495 25.06246 28153 ft 465 kts 301°
2026-05-06 20:07 46.44145 25.02241 27518 ft 467 kts 301°
2026-05-06 20:08 46.45717 24.98111 26921 ft 468 kts 294°
2026-05-06 20:08 46.46660 24.93526 26411 ft 473 kts 281°
2026-05-06 20:08 46.46959 24.88808 26057 ft 474 kts 274°
2026-05-06 20:08 46.47112 24.84144 25244 ft 457 kts 273°
2026-05-06 20:09 46.47194 24.79549 24316 ft 457 kts 271°
2026-05-06 20:09 46.47208 24.74985 23435 ft 449 kts 270°
2026-05-06 20:09 46.47183 24.70527 22492 ft 436 kts 270°
2026-05-06 20:09 46.47536 24.66296 21845 ft 421 kts 287°
2026-05-06 20:10 46.48770 24.62572 21644 ft 406 kts 304°
2026-05-06 20:10 46.50381 24.59264 21252 ft 396 kts 300°
2026-05-06 20:10 46.51595 24.55744 21042 ft 383 kts 295°
2026-05-06 20:10 46.52644 24.52313 20842 ft 371 kts 293°
2026-05-06 20:11 46.53633 24.48866 20514 ft 364 kts 292°
2026-05-06 20:11 46.54580 24.45469 20168 ft 363 kts 291°
2026-05-06 20:11 46.55507 24.42097 19806 ft 362 kts 291°
2026-05-06 20:11 46.56436 24.38694 19424 ft 361 kts 291°
2026-05-06 20:12 46.57358 24.35311 19041 ft 360 kts 291°
2026-05-06 20:12 46.58276 24.31924 18643 ft 359 kts 290°
2026-05-06 20:12 46.59187 24.28557 18229 ft 358 kts 290°
2026-05-06 20:12 46.60085 24.25239 17812 ft 356 kts 290°
2026-05-06 20:13 46.60989 24.21898 17425 ft 353 kts 290°
2026-05-06 20:13 46.61882 24.18583 17102 ft 352 kts 290°
2026-05-06 20:13 46.62770 24.15294 16698 ft 350 kts 290°
2026-05-06 20:13 46.64000 24.12277 16282 ft 350 kts 310°
2026-05-06 20:14 46.65888 24.10032 15873 ft 350 kts 327°
2026-05-06 20:14 46.67926 24.08106 15460 ft 349 kts 324°
2026-05-06 20:14 46.69927 24.06161 15034 ft 348 kts 324°
2026-05-06 20:14 46.71916 24.04219 14597 ft 346 kts 324°
2026-05-06 20:15 46.73914 24.02266 14149 ft 345 kts 324°
2026-05-06 20:15 46.75879 24.00276 13690 ft 343 kts 317°
2026-05-06 20:15 46.77357 23.97665 13244 ft 336 kts 296°
2026-05-06 20:15 46.78099 23.94486 12772 ft 330 kts 277°
2026-05-06 20:16 46.78479 23.91183 12341 ft 329 kts 278°
2026-05-06 20:16 46.78883 23.87911 11912 ft 329 kts 278°
2026-05-06 20:16 46.79285 23.84658 11495 ft 327 kts 278°
2026-05-06 20:16 46.79684 23.81425 11099 ft 326 kts 278°
2026-05-06 20:17 46.80131 23.78161 10712 ft 324 kts 283°
2026-05-06 20:17 46.80799 23.75087 10638 ft 318 kts 285°
2026-05-06 20:17 46.81461 23.71991 10546 ft 320 kts 285°
2026-05-06 20:17 46.82120 23.68906 10446 ft 320 kts 285°
2026-05-06 20:18 46.82780 23.65809 10341 ft 319 kts 285°
2026-05-06 20:18 46.83434 23.62740 10293 ft 312 kts 285°
2026-05-06 20:18 46.84071 23.59753 10169 ft 303 kts 284°
2026-05-06 20:18 46.84678 23.56888 10057 ft 294 kts 285°
2026-05-06 20:19 46.85267 23.54072 9903 ft 287 kts 281°
2026-05-06 20:19 46.85323 23.51279 9749 ft 273 kts 256°
2026-05-06 20:19 46.84771 23.48628 9452 ft 270 kts 250°
2026-05-06 20:19 46.84188 23.46020 9178 ft 269 kts 250°
2026-05-06 20:20 46.83602 23.43430 8915 ft 268 kts 250°
2026-05-06 20:20 46.83018 23.40866 8668 ft 267 kts 250°
2026-05-06 20:20 46.82442 23.38332 8566 ft 259 kts 249°
2026-05-06 20:20 46.81881 23.35877 8550 ft 248 kts 249°
2026-05-06 20:21 46.81347 23.33541 8528 ft 238 kts 249°
2026-05-06 20:21 46.80826 23.31261 8457 ft 230 kts 249°
2026-05-06 20:21 46.80323 23.29067 8158 ft 228 kts 249°
2026-05-06 20:21 46.79823 23.26887 7758 ft 229 kts 249°
2026-05-06 20:22 46.79317 23.24712 7449 ft 225 kts 245°
2026-05-06 20:22 46.78390 23.22956 7414 ft 221 kts 213°
2026-05-06 20:22 46.76955 23.22246 7349 ft 224 kts 181°
2026-05-06 20:22 46.75421 23.22678 7297 ft 226 kts 165°
2026-05-06 20:23 46.73911 23.23349 7269 ft 226 kts 164°
2026-05-06 20:23 46.72501 23.24428 6912 ft 235 kts 138°
2026-05-06 20:23 46.71656 23.26440 6526 ft 239 kts 107°
2026-05-06 20:23 46.71523 23.28860 6224 ft 238 kts 95°
2026-05-06 20:24 46.71393 23.31209 5886 ft 232 kts 98°
2026-05-06 20:24 46.71220 23.33513 5606 ft 223 kts 98°
2026-05-06 20:24 46.71237 23.35717 5308 ft 221 kts 75°
2026-05-06 20:24 46.71763 23.37779 5092 ft 212 kts 72°
2026-05-06 20:25 46.72219 23.39695 4920 ft 191 kts 73°
2026-05-06 20:25 46.72633 23.41483 4641 ft 184 kts 73°
2026-05-06 20:25 46.73036 23.43244 4419 ft 183 kts 73°
2026-05-06 20:25 46.73439 23.44998 4185 ft 182 kts 73°
2026-05-06 20:26 46.73822 23.46682 3996 ft 169 kts 73°
2026-05-06 20:26 46.74192 23.48309 3753 ft 163 kts 73°
2026-05-06 20:26 46.74539 23.49839 3533 ft 157 kts 73°
2026-05-06 20:26 46.74879 23.51332 3329 ft 155 kts 73°
2026-05-06 20:27 46.75212 23.52802 3127 ft 153 kts 73°
2026-05-06 20:27 46.75545 23.54272 2922 ft 152 kts 73°
2026-05-06 20:27 46.75875 23.55724 2718 ft 151 kts 72°
2026-05-06 20:27 46.76203 23.57171 2514 ft 149 kts 72°
2026-05-06 20:28 46.76524 23.58594 2314 ft 148 kts 72°
2026-05-06 20:28 46.76846 23.60014 2115 ft 148 kts 72°
2026-05-06 20:28 46.77172 23.61453 1914 ft 148 kts 72°
2026-05-06 20:28 46.77494 23.62879 1714 ft 148 kts 72°
2026-05-06 20:29 46.77815 23.64303 1518 ft 147 kts 72°
2026-05-06 20:29 46.78133 23.65736 1311 ft 147 kts 72°
2026-05-06 20:29 46.78463 23.67145 1108 ft 147 kts 74°
2026-05-06 20:29 46.78749 23.68449 1041 ft 102 kts 70°
2026-05-06 20:30 46.78871 23.69002 1039 ft 18 kts 71°
2026-05-06 20:30 46.78791 23.69222 1038 ft 6 kts 162°
2026-05-06 20:30 46.78747 23.69242 1038 ft 7 kts 163°
2026-05-06 20:31 46.78715 23.69256 1038 ft 4 kts 162°
2026-05-06 20:31 46.78682 23.69272 1038 ft 5 kts 159°
2026-05-06 20:31 46.78663 23.69307 1038 ft 5 kts 104°
2026-05-06 20:31 46.78661 23.69355 1038 ft 2 kts 75°
2026-05-06 20:32 46.78674 23.69370 1038 ft 2 kts 19°
2026-05-06 20:32 46.78685 23.69368 1038 ft 0 kts 339°
2026-05-06 20:32 46.78688 23.69360 1038 ft 0 kts 290°
2026-05-06 20:32 46.78686 23.69354 1038 ft 0 kts 251°
2026-05-06 20:41 46.78680 23.69335 1038 ft 4 kts 245°
2026-05-06 20:41 46.78664 23.69302 1038 ft 4 kts 215°
2026-05-06 20:42 46.78638 23.69295 1039 ft 2 kts 175°
2026-05-06 20:42 46.78610 23.69309 1039 ft 7 kts 161°
2026-05-06 20:42 46.78576 23.69326 1039 ft 3 kts 164°
2026-05-06 20:42 46.78551 23.69316 1038 ft 3 kts 214°
2026-05-06 20:43 46.78539 23.69285 1038 ft 3 kts 257°
2026-05-06 20:43 46.78538 23.69275 1038 ft 0 kts 258°